Weather in Mochishche

Russia / Novosibirsk Oblast     55°09′00″N   82°50′57″E
temp.,
°C
wind,
m/s
gust,
m/s
humid.,
%
clouds,
%
prec.,
mm/h
press.,
hPa
HPBL,
m
27 february, sat
sat2701:00−24sw51095100 0.1 1034602
04:00−25sw4995100 0.1 1035492
07:00−25sw4897100 0.3 1036404
10:00−25sw5895100 0.1 1036480
13:00−23sw4791100 0.2 1036600
16:00−22sw4690100 0.1 1036607
19:00−25sw3396100 0.1 103730
22:00−28sw339775 0.0 103823
28 february, sun
sun2801:00−30ssw339759 0.0 103831
04:00−31s339742 0.0 103833
07:00−31s349842 0.0 103938
10:00−27s369670 0.0 1037172
13:00−21sse469370 0.0 1034345
16:00−18sse368988 0.0 1032413
19:00−18ese339294 0.0 102943
22:00−15ese3796100 0.2 1026232
1 march, mon
mon101:00−14ese3796100 0.4 1023204
04:00−11se4995100 0.4 1019388
07:00−9se41095100 1.8 1014483
10:00−6se51095100 1.7 1011542
13:00−3ese5997100 4.0 1008454
16:000sw510100100 3.9 1006547
19:000sw51098100 5.9 1005645
22:00−2wnw4898100 2.4 1006380
2 march, tue
tue201:00−10nne3495100 3.2 1007119
04:00−11nne2496100 0.3 1010105
07:00−14n239698 0.7 101247
10:00−14nnw239599 0.1 1015168
13:00−12w348799 0.3 1017532
16:00−11wsw4588100 0.1 1018609
19:00−14sw2394100 0.2 101841
22:00−17sw229690 0.0 101820
3 march, wed
wed301:00−18s129795 0.1 101720
04:00−17ese1197100 0.1 101620
07:00−17ene129799 0.3 101620
10:00−14ne229498 0.2 1015135
13:00−12n228999 0.5 1016340
16:00−10wnw2288100 0.3 1017375
19:00−13wsw239494 0.4 102045
22:00−16sw239675 0.0 102220